Location: Unspecified
(0.0000°N, 0.0000°E)
Time: 21:34:07
(UTC+01:00)

SeaSat 1 - Visible Passes

Search period start: 13 December 2017 00:00
Search period end: 23 December 2017 00:00
Orbit: 744 x 748 km, 108.0° (Epoch: 12 December)

Date Brightness Start Highest point End Pass type
(mag) Time Alt. Az. Time Alt. Az. Time Alt. Az.
16 Dec 5.3 03:56:00 11° SSE 03:56:00 11° SSE 03:56:08 10° SSE visible
17 Dec 4.7 04:51:58 13° SSW 04:51:58 13° SSW 04:52:30 10° SSW visible
18 Dec 4.8 04:08:08 18° SSE 04:08:08 18° SSE 04:09:48 10° S visible
19 Dec 3.9 05:03:53 25° SSW 05:03:53 25° SSW 05:05:55 10° SSW visible
20 Dec 4.1 04:19:45 30° SE 04:19:45 30° SE 04:23:26 10° S visible
20 Dec 4.5 05:59:27 10° WSW 05:59:27 10° WSW 05:59:30 10° WSW visible
21 Dec 2.4 05:15:02 58° W 05:15:02 58° W 05:19:21 10° SSW visible
22 Dec 3.9 04:30:00 21° ENE 04:32:35 35° ESE 04:37:03 10° S visible
22 Dec 3.9 06:09:34 15° WNW 06:09:51 15° WNW 06:12:33 10° WSW visible
